Terug naar catalogus

ONEWEB-0086

ActiefCommunicatiePO
NORAD 45456·PAYLOAD·🇬🇧 United Kingdom

Gelanceerd Mar 21, 2020 vanaf Baikonur Cosmodrome

Loading…

Volgende Passages (komende 24 uur)

TLE

VersSource: CelesTrak SupGP

Epoch: Sep 14, 2026, 17:53 UTC

1 45456C 20020AJ  26257.74562917  .00001830  00000+0  51680-2 0  2571
2 45456  87.8989   3.2635 0002136  81.8178  20.0859 13.11419583    10

Volg ONEWEB-0086 in realtime met AllMySat

Download on the App Store